Voltar ao catálogo

ONEWEB-0448

AtivoComunicaçõesPO
NORAD 51641·PAYLOAD·🇬🇧 United Kingdom

Lançado Feb 10, 2022 de Guiana Space Centre

Loading…

Próximas Passagens (próximas 24 horas)

TLE

AtualizadoSource: CelesTrak SupGP

Época: Sep 14, 2026, 23:32 UTC

1 51641C 22012V   26257.98109214 -.00002645  00000+0 -75869-2 0  2572
2 51641  87.8893  18.3989 0001743 103.6641 296.2887 13.10370585    12

Acompanhe ONEWEB-0448 em tempo real com AllMySat

Download on the App Store